TimeCST,TemperatureF,Dew PointF,Humidity,Sea Level PressureIn,VisibilityMPH,Wind Direction,Wind SpeedMPH,Gust SpeedMPH,PrecipitationIn,Events,Conditions,WindDirDegrees,DateUTC
12:53 AM,6.1,-0.0,76,29.70,10.0,Variable,5.8,-,N/A,,Overcast,0,2014-02-22 06:53:00
1:26 AM,6.1,-0.0,76,29.62,10.0,Variable,5.8,-,N/A,,Scattered Clouds,0,2014-02-22 07:26:00
1:53 AM,6.1,-0.0,76,29.71,10.0,Variable,5.8,-,N/A,,Overcast,0,2014-02-22 07:53:00
2:32 AM,6.1,-0.0,76,29.64,10.0,Variable,3.5,-,N/A,,Overcast,0,2014-02-22 08:32:00
2:53 AM,6.1,1.0,80,29.73,10.0,Variable,4.6,-,N/A,,Overcast,0,2014-02-22 08:53:00
3:53 AM,6.1,-0.9,73,29.75,10.0,West,9.2,-,N/A,,Overcast,260,2014-02-22 09:53:00
4:53 AM,5.0,-2.0,73,29.78,10.0,WSW,8.1,-,N/A,,Overcast,240,2014-02-22 10:53:00
5:53 AM,3.9,-2.0,76,29.81,10.0,Variable,3.5,-,N/A,,Overcast,0,2014-02-22 11:53:00
6:53 AM,1.9,-4.0,76,29.83,10.0,WSW,5.8,-,N/A,,Mostly Cloudy,240,2014-02-22 12:53:00
7:07 AM,1.9,-4.0,76,29.75,10.0,WSW,8.1,-,N/A,,Scattered Clouds,240,2014-02-22 13:07:00
7:53 AM,1.9,-4.0,76,29.86,10.0,Variable,5.8,-,N/A,,Partly Cloudy,0,2014-02-22 13:53:00
8:53 AM,3.9,-2.9,73,29.87,10.0,WSW,8.1,17.3,N/A,,Partly Cloudy,250,2014-02-22 14:53:00
9:53 AM,7.0,-2.0,67,29.87,10.0,Variable,6.9,-,N/A,,Partly Cloudy,0,2014-02-22 15:53:00
10:53 AM,9.0,-0.9,64,29.88,10.0,West,8.1,18.4,N/A,,Partly Cloudy,260,2014-02-22 16:53:00
11:53 AM,10.9,1.9,67,29.89,10.0,WSW,10.4,19.6,N/A,,Scattered Clouds,250,2014-02-22 17:53:00
12:05 PM,10.9,1.0,64,29.81,10.0,WSW,12.7,20.7,N/A,,Mostly Cloudy,240,2014-02-22 18:05:00
12:16 PM,10.9,1.0,64,29.81,10.0,West,10.4,23.0,N/A,,Scattered Clouds,260,2014-02-22 18:16:00
12:29 PM,12.0,1.0,61,29.81,10.0,WSW,10.4,20.7,N/A,,Mostly Cloudy,250,2014-02-22 18:29:00
12:53 PM,12.0,1.0,61,29.89,9.0,West,10.4,21.9,N/A,,Mostly Cloudy,260,2014-02-22 18:53:00
1:29 PM,12.9,3.0,65,29.81,10.0,WSW,9.2,18.4,N/A,,Scattered Clouds,250,2014-02-22 19:29:00
1:38 PM,12.0,1.0,61,29.81,10.0,West,10.4,18.4,N/A,,Mostly Cloudy,260,2014-02-22 19:38:00
1:45 PM,12.0,1.0,61,29.81,10.0,WSW,12.7,24.2,N/A,,Scattered Clouds,240,2014-02-22 19:45:00
1:53 PM,12.0,1.9,64,29.90,10.0,WSW,11.5,24.2,N/A,,Scattered Clouds,240,2014-02-22 19:53:00
2:20 PM,12.9,1.9,62,29.82,10.0,West,12.7,20.7,N/A,,Mostly Cloudy,260,2014-02-22 20:20:00
2:29 PM,12.9,1.0,59,29.82,10.0,WSW,9.2,20.7,N/A,,Scattered Clouds,240,2014-02-22 20:29:00
2:53 PM,14.0,1.9,59,29.91,10.0,WSW,11.5,21.9,N/A,,Partly Cloudy,250,2014-02-22 20:53:00
3:53 PM,14.0,3.0,62,29.92,10.0,WSW,9.2,17.3,N/A,,Clear,250,2014-02-22 21:53:00
4:53 PM,12.9,3.0,65,29.93,10.0,WSW,9.2,16.1,N/A,,Clear,250,2014-02-22 22:53:00
5:53 PM,10.9,3.0,70,29.95,10.0,Variable,6.9,-,N/A,,Clear,0,2014-02-22 23:53:00
6:53 PM,9.0,1.0,70,29.98,10.0,Variable,5.8,-,N/A,,Clear,0,2014-02-23 00:53:00
7:53 PM,8.1,-0.0,70,30.00,10.0,SW,4.6,-,N/A,,Clear,230,2014-02-23 01:53:00
8:53 PM,7.0,-0.9,70,30.02,10.0,Variable,6.9,-,N/A,,Clear,0,2014-02-23 02:53:00
9:53 PM,6.1,-2.0,69,30.03,10.0,Variable,6.9,-,N/A,,Clear,0,2014-02-23 03:53:00
10:53 PM,5.0,-2.9,70,30.04,10.0,Variable,5.8,-,N/A,,Clear,0,2014-02-23 04:53:00
11:53 PM,3.9,-4.0,70,30.06,10.0,Variable,5.8,-,N/A,,Clear,0,2014-02-23 05:53:00